Location: Noverd
(38.0910°N, 121.6877°W)
Time: 15:12:53
(UTC+00:00)

Envisat - Pass Details

Date: 19 April 2026
Orbit: 761 x 762 km, 98.4° (Epoch: 15 May)

Event Time Altitude Azimuth Distance (km) Brightness Sun altitude
Rises 10:29:31 0° 16° (NNE) 3,230 7.1 -30.3°
Reaches altitude 10° 10:31:51 10° 19° (NNE) 2,300 6.2 -30.0°
Enters shadow 10:36:26 62° 72° (ENE) 856 3.3 -29.4°
